�������l�o���
Date,Time,MP-1(��Sv/h),MP-2(��Sv/h),MP-3(��Sv/h),MP-4(��Sv/h),MP-5(��Sv/h),MP-6(��Sv/h),MP-7(��Sv/h),MP-8(��Sv/h),����,����(m/s),���J
2021/11/22,00:00,0.595,0.895,0.565,1.097,0.766,0.359,0.621,0.586,��,2.3,��
2021/11/22,00:10,0.594,0.893,0.565,1.101,0.765,0.359,0.622,0.586,��,1.7,�L
2021/11/22,00:20,0.593,0.894,0.565,1.097,0.767,0.361,0.622,0.586,��쐼,1.7,�L
2021/11/22,00:30,0.594,0.894,0.565,1.098,0.767,0.360,0.623,0.586,��쐼,1.5,�L
2021/11/22,00:40,0.596,0.893,0.567,1.099,0.765,0.362,0.622,0.586,���쐼,1.7,�L
2021/11/22,00:50,0.596,0.892,0.567,1.098,0.766,0.360,0.622,0.587,��,1.2,�L
2021/11/22,01:00,0.595,0.892,0.566,1.098,0.764,0.360,0.622,0.585,���k��,1.4,�L
2021/11/22,01:10,0.597,0.893,0.566,1.098,0.768,0.361,0.621,0.586,���k��,1.5,�L
2021/11/22,01:20,0.596,0.892,0.567,1.100,0.765,0.363,0.622,0.585,�k��,2.2,�L
2021/11/22,01:30,0.596,0.889,0.566,1.099,0.767,0.362,0.621,0.586,���k��,1.9,�L
2021/11/22,01:40,0.592,0.892,0.566,1.098,0.764,0.362,0.622,0.587,���k��,0.9,�L
2021/11/22,01:50,0.595,0.889,0.566,1.096,0.763,0.363,0.621,0.584,���k��,0.9,�L
2021/11/22,02:00,0.594,0.889,0.566,1.096,0.765,0.363,0.620,0.586,���k��,1.1,�L
2021/11/22,02:10,0.594,0.886,0.564,1.095,0.761,0.363,0.620,0.585,���k��,0.9,�L
2021/11/22,02:20,0.594,0.885,0.563,1.092,0.760,0.361,0.619,0.585,���k��,0.8,�L
2021/11/22,02:30,0.594,0.884,0.563,1.092,0.761,0.362,0.619,0.586,-,CALM,�L
2021/11/22,02:40,0.591,0.884,0.564,1.088,0.758,0.361,0.618,0.583,�k��,1.1,�L
2021/11/22,02:50,0.590,0.881,0.562,1.090,0.760,0.360,0.618,0.583,���k��,0.9,�L
2021/11/22,03:00,0.590,0.881,0.562,1.088,0.758,0.361,0.618,0.585,-,CALM,�L
2021/11/22,03:10,0.592,0.880,0.559,1.088,0.756,0.359,0.619,0.584,�k,0.9,�L
2021/11/22,03:20,0.588,0.879,0.560,1.086,0.756,0.358,0.617,0.582,�k��,1.2,�L
2021/11/22,03:30,0.588,0.878,0.561,1.089,0.757,0.359,0.618,0.583,���k��,1.7,�L
2021/11/22,03:40,0.588,0.879,0.561,1.084,0.758,0.358,0.615,0.582,-,CALM,��
2021/11/22,03:50,0.587,0.880,0.558,1.084,0.755,0.357,0.616,0.582,�k��,1.2,��
2021/11/22,04:00,0.586,0.878,0.557,1.084,0.755,0.357,0.617,0.582,�k��,1.7,�L
2021/11/22,04:10,0.588,0.876,0.558,1.085,0.755,0.358,0.617,0.582,�k��,1.7,�L
2021/11/22,04:20,0.587,0.876,0.559,1.085,0.754,0.358,0.617,0.581,�k��,1.7,�L
2021/11/22,04:30,0.587,0.876,0.558,1.083,0.756,0.358,0.618,0.581,�k�k��,1.5,�L
2021/11/22,04:40,0.587,0.875,0.560,1.082,0.755,0.358,0.617,0.582,�k�k��,1.7,�L
2021/11/22,04:50,0.587,0.876,0.560,1.080,0.752,0.359,0.617,0.581,�k�k��,2.8,�L
2021/11/22,05:00,0.585,0.872,0.557,1.082,0.752,0.359,0.614,0.581,�k�k��,2.2,�L
2021/11/22,05:10,0.587,0.874,0.558,1.079,0.751,0.361,0.615,0.582,�k��,2.2,�L
2021/11/22,05:20,0.586,0.872,0.557,1.077,0.750,0.360,0.615,0.580,�k��,2.2,�L
2021/11/22,05:30,0.586,0.871,0.559,1.075,0.751,0.359,0.614,0.579,�k��,2.0,�L
2021/11/22,05:40,0.585,0.870,0.557,1.074,0.750,0.361,0.614,0.580,�k��,2.9,�L
2021/11/22,05:50,0.585,0.871,0.558,1.075,0.751,0.359,0.612,0.581,�k��,3.5,�L
2021/11/22,06:00,0.583,0.870,0.558,1.072,0.750,0.359,0.612,0.582,�k��,3.2,�L
2021/11/22,06:10,0.584,0.868,0.555,1.071,0.748,0.358,0.613,0.581,�k��,2.8,�L
2021/11/22,06:20,0.582,0.869,0.557,1.071,0.749,0.358,0.612,0.579,�k��,2.8,�L
2021/11/22,06:30,0.582,0.867,0.557,1.068,0.749,0.358,0.612,0.580,�k��,2.3,�L
2021/11/22,06:40,0.581,0.865,0.557,1.066,0.746,0.356,0.613,0.578,�k�k��,2.8,�L
2021/11/22,06:50,0.581,0.866,0.555,1.066,0.746,0.358,0.613,0.577,���k��,1.7,�L
2021/11/22,07:00,0.577,0.862,0.554,1.063,0.742,0.357,0.611,0.576,���k��,1.4,�L
2021/11/22,07:10,0.577,0.859,0.552,1.058,0.738,0.357,0.610,0.576,�k�k��,0.9,�L
2021/11/22,07:20,0.578,0.859,0.553,1.059,0.741,0.356,0.609,0.577,�k�k��,1.5,�L
2021/11/22,07:30,0.579,0.859,0.551,1.057,0.739,0.356,0.610,0.576,�k�k��,1.1,�L
2021/11/22,07:40,0.577,0.858,0.552,1.056,0.738,0.355,0.608,0.577,�k�k��,0.6,�L
2021/11/22,07:50,0.577,0.858,0.551,1.057,0.740,0.355,0.609,0.576,���쓌,1.2,�L
2021/11/22,08:00,0.577,0.858,0.552,1.056,0.740,0.356,0.608,0.574,�k�k��,1.7,�L
2021/11/22,08:10,0.576,0.859,0.550,1.054,0.740,0.356,0.611,0.576,�k��,2.5,�L
2021/11/22,08:20,0.576,0.858,0.551,1.055,0.740,0.355,0.610,0.576,�k�k��,2.5,�L
2021/11/22,08:30,0.575,0.855,0.551,1.053,0.737,0.355,0.609,0.576,�k��,0.9,�L
2021/11/22,08:40,0.576,0.854,0.551,1.051,0.739,0.354,0.609,0.577,�쓌,1.4,�L
2021/11/22,08:50,0.576,0.857,0.550,1.054,0.738,0.355,0.609,0.576,�쓌,2.8,�L
2021/11/22,09:00,0.574,0.855,0.550,1.052,0.737,0.352,0.609,0.577,�쓌,2.5,�L
2021/11/22,09:10,0.575,0.855,0.550,1.051,0.739,0.354,0.609,0.575,���쓌,0.9,�L
2021/11/22,09:20,0.576,0.853,0.550,1.050,0.737,0.354,0.607,0.576,��쓌,1.4,�L
2021/11/22,09:30,0.574,0.850,0.549,1.047,0.736,0.353,0.609,0.574,�쓌,1.7,�L
2021/11/22,09:40,0.570,0.847,0.548,1.044,0.735,0.353,0.606,0.572,��쓌,3.0,�L
2021/11/22,09:50,0.571,0.850,0.548,1.046,0.736,0.355,0.606,0.573,��쓌,4.6,�L
2021/11/22,10:00,0.573,0.847,0.549,1.044,0.736,0.355,0.605,0.573,��,4.8,�L
2021/11/22,10:10,0.573,0.847,0.548,1.044,0.736,0.354,0.608,0.574,��,5.7,�L
2021/11/22,10:20,0.573,0.849,0.548,1.046,0.734,0.354,0.606,0.573,��쓌,6.1,�L
2021/11/22,10:30,0.571,0.849,0.547,1.045,0.734,0.353,0.606,0.572,��쓌,7.7,�L
2021/11/22,10:40,0.573,0.845,0.547,1.045,0.735,0.353,0.605,0.574,��,7.3,�L
2021/11/22,10:50,0.571,0.848,0.547,1.044,0.734,0.353,0.607,0.573,��쓌,8.9,�L
2021/11/22,11:00,0.571,0.844,0.547,1.045,0.731,0.354,0.606,0.572,��,7.9,�L
2021/11/22,11:10,0.570,0.841,0.547,1.041,0.729,0.351,0.606,0.570,��,7.3,�L
2021/11/22,11:20,0.569,0.841,0.546,1.042,0.728,0.350,0.604,0.570,��,6.3,�L
2021/11/22,11:30,0.566,0.842,0.546,1.040,0.726,0.352,0.604,0.569,��,6.4,�L
2021/11/22,11:40,0.567,0.842,0.546,1.040,0.729,0.349,0.605,0.570,��,7.0,��
2021/11/22,11:50,0.567,0.846,0.547,1.041,0.730,0.351,0.604,0.571,��,6.6,��
2021/11/22,12:00,0.568,0.847,0.546,1.042,0.730,0.351,0.605,0.571,��,5.8,��
2021/11/22,12:10,0.570,0.846,0.545,1.043,0.730,0.349,0.606,0.571,��,6.5,��
2021/11/22,12:20,0.568,0.849,0.546,1.042,0.731,0.351,0.606,0.570,��,6.5,��
2021/11/22,12:30,0.570,0.851,0.545,1.043,0.730,0.350,0.606,0.573,��,7.2,��
2021/11/22,12:40,0.570,0.849,0.547,1.045,0.733,0.350,0.608,0.572,��,7.5,��
2021/11/22,12:50,0.568,0.848,0.546,1.041,0.730,0.350,0.606,0.571,��,6.5,��
2021/11/22,13:00,0.567,0.847,0.546,1.043,0.731,0.351,0.607,0.572,��,5.8,��
2021/11/22,13:10,0.570,0.849,0.547,1.041,0.731,0.349,0.607,0.570,��,4.8,�L
2021/11/22,13:20,0.571,0.848,0.547,1.044,0.732,0.352,0.606,0.571,��,6.9,�L
2021/11/22,13:30,0.570,0.847,0.546,1.043,0.732,0.351,0.607,0.572,��쐼,6.0,�L
2021/11/22,13:40,0.569,0.851,0.545,1.044,0.733,0.350,0.607,0.571,�k�k��,8.4,�L
2021/11/22,13:50,0.569,0.848,0.546,1.043,0.732,0.351,0.607,0.573,��,8.9,�L
2021/11/22,14:00,0.571,0.848,0.546,1.045,0.734,0.353,0.607,0.571,��,8.5,�L
2021/11/22,14:10,0.571,0.850,0.547,1.042,0.736,0.351,0.608,0.571,��,8.2,�L
2021/11/22,14:20,0.571,0.848,0.547,1.045,0.734,0.352,0.609,0.574,��,7.6,�L
2021/11/22,14:30,0.572,0.850,0.549,1.045,0.734,0.351,0.608,0.574,��,10.5,��
2021/11/22,14:40,0.570,0.851,0.547,1.045,0.735,0.352,0.608,0.574,��,8.3,��
2021/11/22,14:50,0.572,0.850,0.548,1.044,0.735,0.351,0.609,0.574,��쐼,9.0,�L
2021/11/22,15:00,0.571,0.851,0.548,1.046,0.735,0.353,0.609,0.575,��,8.6,�L
2021/11/22,15:10,0.570,0.855,0.549,1.047,0.735,0.353,0.609,0.576,��,8.3,�L
2021/11/22,15:20,0.573,0.853,0.548,1.047,0.735,0.352,0.608,0.574,��,10.6,�L
2021/11/22,15:30,0.571,0.854,0.549,1.044,0.736,0.353,0.609,0.573,��,10.9,�L
2021/11/22,15:40,0.572,0.852,0.548,1.044,0.738,0.353,0.610,0.575,��,8.4,�L
2021/11/22,15:50,0.574,0.854,0.550,1.047,0.737,0.353,0.610,0.574,��,11.7,�L
2021/11/22,16:00,0.572,0.855,0.548,1.045,0.737,0.353,0.611,0.574,��,9.7,�L
2021/11/22,16:10,0.573,0.856,0.548,1.047,0.737,0.352,0.611,0.575,��,10.6,�L
2021/11/22,16:20,0.574,0.857,0.549,1.047,0.739,0.352,0.612,0.575,��,9.7,�L
2021/11/22,16:30,0.573,0.856,0.550,1.047,0.736,0.353,0.610,0.576,��,10.1,��
2021/11/22,16:40,0.574,0.856,0.549,1.046,0.738,0.353,0.612,0.576,��,8.5,��
2021/11/22,16:50,0.575,0.856,0.551,1.046,0.737,0.353,0.610,0.576,��,7.9,�L
2021/11/22,17:00,0.576,0.856,0.550,1.046,0.736,0.352,0.613,0.577,��,8.2,�L
2021/11/22,17:10,0.575,0.855,0.551,1.047,0.737,0.354,0.611,0.576,��,7.2,�L
2021/11/22,17:20,0.577,0.856,0.548,1.048,0.739,0.354,0.611,0.575,��,6.5,�L
2021/11/22,17:30,0.573,0.856,0.551,1.048,0.739,0.354,0.612,0.577,��,7.3,�L
2021/11/22,17:40,0.575,0.854,0.551,1.049,0.738,0.352,0.612,0.575,��쐼,7.1,�L
2021/11/22,17:50,0.575,0.857,0.551,1.046,0.738,0.355,0.611,0.577,��쐼,4.8,�L
2021/11/22,18:00,0.576,0.858,0.550,1.047,0.738,0.356,0.612,0.575,��,7.7,�L
2021/11/22,18:10,0.576,0.856,0.550,1.047,0.738,0.354,0.611,0.575,��,8.7,�L
2021/11/22,18:20,0.576,0.855,0.549,1.048,0.736,0.355,0.611,0.575,��,7.7,�L
2021/11/22,18:30,0.575,0.853,0.549,1.048,0.738,0.356,0.612,0.575,��,7.4,�L
2021/11/22,18:40,0.573,0.853,0.550,1.046,0.735,0.355,0.611,0.574,��,8.6,�L
2021/11/22,18:50,0.572,0.854,0.547,1.046,0.737,0.353,0.609,0.574,��,9.4,�L
2021/11/22,19:00,0.571,0.847,0.544,1.043,0.730,0.354,0.606,0.573,��,8.0,�L
2021/11/22,19:10,0.569,0.847,0.548,1.041,0.728,0.353,0.608,0.572,��,7.0,�L
2021/11/22,19:20,0.570,0.843,0.545,1.041,0.725,0.353,0.607,0.571,��쐼,6.2,�L
2021/11/22,19:30,0.569,0.842,0.544,1.040,0.725,0.352,0.605,0.569,��,5.9,�L
2021/11/22,19:40,0.569,0.843,0.546,1.040,0.725,0.353,0.606,0.571,��,5.7,�L
2021/11/22,19:50,0.568,0.845,0.547,1.038,0.727,0.353,0.605,0.571,��,5.4,�L
2021/11/22,20:00,0.571,0.843,0.548,1.037,0.727,0.354,0.606,0.572,��,3.9,�L
2021/11/22,20:10,0.569,0.841,0.548,1.036,0.724,0.354,0.606,0.569,���k��,9.6,�L
2021/11/22,20:20,0.567,0.838,0.545,1.031,0.720,0.354,0.604,0.569,���k��,6.9,�L
2021/11/22,20:30,0.568,0.841,0.547,1.032,0.723,0.353,0.603,0.569,��,6.5,��
2021/11/22,20:40,0.568,0.840,0.546,1.032,0.725,0.354,0.604,0.571,��,6.8,��
2021/11/22,20:50,0.571,0.841,0.547,1.035,0.726,0.354,0.604,0.570,���k��,9.6,��
2021/11/22,21:00,0.570,0.842,0.546,1.035,0.725,0.353,0.605,0.568,���k��,10.0,��
2021/11/22,21:10,0.571,0.842,0.547,1.035,0.727,0.353,0.606,0.571,���k��,9.7,��
2021/11/22,21:20,0.568,0.845,0.546,1.036,0.726,0.353,0.605,0.571,�k��,8.3,��
2021/11/22,21:30,0.570,0.844,0.544,1.036,0.727,0.352,0.605,0.570,�k��,6.3,��
2021/11/22,21:40,0.570,0.844,0.546,1.037,0.729,0.351,0.605,0.572,�k��,9.0,��
2021/11/22,21:50,0.568,0.846,0.546,1.035,0.728,0.351,0.606,0.570,�k��,5.0,��
2021/11/22,22:00,0.569,0.845,0.546,1.034,0.729,0.352,0.605,0.570,�k��,5.6,��
2021/11/22,22:10,0.569,0.845,0.544,1.035,0.727,0.353,0.607,0.573,�k��,7.2,��
2021/11/22,22:20,0.570,0.845,0.545,1.037,0.728,0.354,0.606,0.572,�k��,6.1,��
2021/11/22,22:30,0.568,0.845,0.543,1.038,0.729,0.353,0.606,0.572,�k��,5.7,��
2021/11/22,22:40,0.570,0.845,0.543,1.037,0.730,0.354,0.607,0.571,�k�k��,3.6,�L
2021/11/22,22:50,0.569,0.845,0.544,1.038,0.732,0.354,0.606,0.570,�k�k��,2.6,�L
2021/11/22,23:00,0.571,0.847,0.548,1.042,0.731,0.359,0.606,0.572,�k�k��,4.4,�L
2021/11/22,23:10,0.574,0.849,0.553,1.042,0.731,0.361,0.606,0.572,�k�k��,5.2,�L
2021/11/22,23:20,0.574,0.848,0.552,1.044,0.736,0.362,0.608,0.572,�k��,5.3,�L
2021/11/22,23:30,0.577,0.847,0.555,1.047,0.735,0.364,0.608,0.571,���k��,7.5,�L
2021/11/22,23:40,0.578,0.848,0.554,1.046,0.736,0.363,0.611,0.572,���k��,11.6,�L
2021/11/22,23:50,0.577,0.850,0.554,1.047,0.734,0.363,0.607,0.574,���k��,9.3,�L
